Location: Castelbiague
(43.0361°N, 0.9246°E)
Time: 02:42:03
(UTC+00:00)

GEOS 3 Rocket - Visible Passes

Search period start: 23 October 2021 00:00
Search period end: 02 November 2021 00:00
Orbit: 786 x 833 km, 115.0° (Epoch: 22 October)

Date Brightness Start Highest point End Pass type
(mag) Time Alt. Az. Time Alt. Az. Time Alt. Az.
23 Oct 4.3 04:58:41 10° NE 05:03:44 55° ESE 05:08:42 10° SSW visible
24 Oct 5.3 04:35:11 10° NE 04:39:43 31° ESE 04:44:11 10° S visible
25 Oct 6.2 04:12:16 10° ENE 04:15:36 17° ESE 04:18:53 10° SSE visible
25 Oct 3.6 05:48:56 10° NE 05:54:06 80° NW 05:59:10 10° SW visible
26 Oct 4.2 05:25:07 10° NE 05:30:13 60° SE 05:35:13 10° SSW visible
27 Oct 5.3 05:01:34 10° NE 05:06:13 34° ESE 05:10:48 10° S visible
28 Oct 6.2 04:38:31 10° ENE 04:42:07 19° ESE 04:45:40 10° SSE visible
29 Oct 4.1 05:51:34 10° NE 05:56:41 66° SE 06:01:44 10° SSW visible
30 Oct 5.2 05:27:57 10° NE 05:32:42 37° ESE 05:37:23 10° S visible
31 Oct 6.2 05:04:48 10° ENE 05:08:37 21° ESE 05:12:24 10° SSE visible
01 Nov 6.8 04:43:07 10° E 04:44:26 11° ESE 04:45:45 10° SE visible
